Regional Weather Roundup
Issued by NWS

Home | Current Version | Previous Version | Text Only | Print | Product List | Glossary Off
Versions: 1 2 3 4 5 6 7 8 9 10 11 12 13 14 15 16 17 18 19 20 21 22 23 24 25 26 27 28 29 30 31 32 33 34 35 36 37 38 39 40 41 42 43 44 45 46 47 48 49 50

000
ASUS43 KBIS 020302
RWRND

NORTH DAKOTA REGIONAL WEATHER ROUNDUP
NATIONAL WEATHER SERVICE BISMARCK ND
1000 PM CDT MON JUN 01 2015

NOTE: "FAIR" INDICATES FEW OR NO CLOUDS BELOW 12,000 FEET WITH NO
SIGNIFICANT WEATHER AND/OR OBSTRUCTIONS TO VISIBILITY.


NDZ001>003-009>011-017-020400-
NORTHWEST NORTH DAKOTA

CITY           SKY/WX    TMP DP  RH WIND       PRES   REMARKS
WILLISTON      PTCLDY    75  57  53 NE13      29.76R
MINOT          CLOUDY    66  56  70 NW10      29.78R
MINOT AFB      CLOUDY    68  68 100 E7        29.76S
$$

NDZ018>021-031>035-040>046-020400-
SOUTHWEST NORTH DAKOTA

CITY           SKY/WX    TMP DP  RH WIND       PRES   REMARKS
BISMARCK       PTCLDY    70  61  73 SE6       29.79R
DICKINSON      MOCLDY    70  61  73 SE8       29.76S
GARRISON         N/A     66  57  72 E6        29.79F
HETTINGER ARPT MOCLDY    71  60  68 SE8       29.78F
$$

NDZ004>008-012>016-024-026-027-054-020400-
NORTHEAST NORTH DAKOTA

CITY           SKY/WX    TMP DP  RH WIND       PRES   REMARKS
GRAND FORKS    MOCLDY    68  46  45 SE16      29.88S
GRND FRKS AFB  MOCLDY    69  48  46 S15       29.87S
DEVILS LAKE    CLOUDY    72  57  60 S14       29.80F
$$

NDZ022-023-025-028>030-036>039-047>053-020400-
SOUTHEAST NORTH DAKOTA

CITY           SKY/WX    TMP DP  RH WIND       PRES   REMARKS
FARGO          CLEAR     69  46  43 SE17G25   29.91R
JAMESTOWN      PTCLDY    71  58  63 S13       29.84R
$$




USA.gov is the U.S. government's official web portal to all federal, state and local government web resources and services.